TRA52U LGSM-EHAM

Flight info

Callsign TRA52U
Flight time N/A
Altitude 36000
Route URNIL2B URNIL UL609 MES DCT EVIVI DCT OKANA DCT TONDO DCT TEKNO DCT BEGLA DCT KOVEL DCT DITIS DCT VARIK DCT KATCE DCT NORKU NORKU2A
Aircraft A21N/M-VGDW/C

Departure

Time N/A
Airport Samos Airport (LGSM)

Arrival

Time 2026-04-29 14:51
Airport Amsterdam Airport Schiphol (EHAM)
Time Latitude Longitude Altitude Speed Heading
2026-04-29 14:35 52.50985 5.58510 10321 ft 302 kts 275°
2026-04-29 14:35 52.50838 5.55028 10338 ft 308 kts 261°
2026-04-29 14:35 52.50305 5.51544 10327 ft 311 kts 255°
2026-04-29 14:35 52.49694 5.48136 10339 ft 311 kts 254°
2026-04-29 14:36 52.49073 5.44738 10342 ft 311 kts 254°
2026-04-29 14:36 52.48455 5.41306 10357 ft 311 kts 255°
2026-04-29 14:36 52.47843 5.37867 10335 ft 309 kts 255°
2026-04-29 14:36 52.47257 5.34536 10076 ft 305 kts 254°
2026-04-29 14:37 52.46679 5.31231 9651 ft 305 kts 254°
2026-04-29 14:37 52.46096 5.27878 9265 ft 305 kts 254°
2026-04-29 14:37 52.45495 5.24560 8872 ft 304 kts 249°
2026-04-29 14:37 52.44360 5.21673 8426 ft 300 kts 220°
2026-04-29 14:38 52.42666 5.19650 8039 ft 294 kts 208°
2026-04-29 14:38 52.40915 5.17888 7658 ft 294 kts 208°
2026-04-29 14:38 52.39219 5.16082 7386 ft 291 kts 210°
2026-04-29 14:38 52.37536 5.14149 7332 ft 294 kts 212°
2026-04-29 14:39 52.35900 5.12163 7314 ft 296 kts 216°
2026-04-29 14:39 52.34484 5.09678 7338 ft 298 kts 230°
2026-04-29 14:39 52.33235 5.06937 7329 ft 298 kts 232°
2026-04-29 14:39 52.32030 5.04183 7301 ft 299 kts 232°
2026-04-29 14:40 52.30828 5.01414 7294 ft 298 kts 232°
2026-04-29 14:40 52.29616 4.98607 6968 ft 298 kts 232°
2026-04-29 14:40 52.28422 4.95826 6635 ft 295 kts 232°
2026-04-29 14:40 52.27264 4.93103 6251 ft 295 kts 232°
2026-04-29 14:41 52.26096 4.90338 5844 ft 292 kts 233°
2026-04-29 14:41 52.24964 4.87662 5645 ft 281 kts 233°
2026-04-29 14:41 52.23866 4.85063 5480 ft 272 kts 233°
2026-04-29 14:41 52.22801 4.82537 5312 ft 264 kts 232°
2026-04-29 14:42 52.21777 4.80098 5083 ft 259 kts 233°
2026-04-29 14:42 52.20755 4.77666 4773 ft 257 kts 232°
2026-04-29 14:42 52.19751 4.75272 4422 ft 257 kts 232°
2026-04-29 14:42 52.18741 4.72856 4088 ft 257 kts 233°
2026-04-29 14:43 52.17737 4.70448 3789 ft 256 kts 232°
2026-04-29 14:43 52.16748 4.68074 3496 ft 254 kts 233°
2026-04-29 14:43 52.15751 4.65683 3210 ft 252 kts 233°
2026-04-29 14:43 52.14767 4.63323 2999 ft 249 kts 232°
2026-04-29 14:44 52.13790 4.60978 2978 ft 252 kts 233°
2026-04-29 14:44 52.12866 4.58552 2953 ft 250 kts 246°
2026-04-29 14:44 52.12612 4.55830 2853 ft 238 kts 281°
2026-04-29 14:44 52.13227 4.53464 2721 ft 218 kts 318°
2026-04-29 14:45 52.14280 4.51924 2712 ft 194 kts 330°
2026-04-29 14:45 52.15380 4.50632 2367 ft 191 kts 338°
2026-04-29 14:45 52.16580 4.50176 2023 ft 169 kts 18°
2026-04-29 14:45 52.17688 4.50783 1981 ft 165 kts 31°
2026-04-29 14:46 52.18731 4.51547 1982 ft 165 kts 33°
2026-04-29 14:46 52.19736 4.52458 1978 ft 162 kts 43°
2026-04-29 14:46 52.20612 4.53619 1988 ft 160 kts 47°
2026-04-29 14:46 52.21397 4.54899 1977 ft 159 kts 54°
2026-04-29 14:47 52.22091 4.56311 1971 ft 157 kts 58°
2026-04-29 14:47 52.22738 4.57735 1958 ft 149 kts 59°
2026-04-29 14:47 52.23304 4.59076 1951 ft 141 kts 61°
2026-04-29 14:47 52.23659 4.59969 1905 ft 138 kts 62°
2026-04-29 14:48 52.24338 4.61724 1670 ft 136 kts 62°
2026-04-29 14:48 52.24836 4.63036 1491 ft 137 kts 62°
2026-04-29 14:48 52.25339 4.64363 1314 ft 136 kts 60°
2026-04-29 14:48 52.25819 4.65625 1162 ft 130 kts 59°
2026-04-29 14:49 52.26296 4.66877 982 ft 128 kts 60°
2026-04-29 14:49 52.26774 4.68112 807 ft 127 kts 57°
2026-04-29 14:49 52.27233 4.69345 654 ft 128 kts 57°
2026-04-29 14:49 52.27708 4.70590 480 ft 129 kts 55°
2026-04-29 14:50 52.28191 4.71813 295 ft 127 kts 62°
2026-04-29 14:50 52.28655 4.73052 139 ft 127 kts 57°
2026-04-29 14:50 52.29125 4.74274 9 ft 120 kts 59°
2026-04-29 14:50 52.29506 4.75274 0 ft 79 kts 58°
2026-04-29 14:51 52.29734 4.75758 0 ft 28 kts 33°
2026-04-29 14:51 52.29817 4.75833 0 ft 11 kts 27°
2026-04-29 14:51 52.29906 4.75910 0 ft 17 kts 28°
2026-04-29 14:51 52.30013 4.76040 0 ft 20 kts 56°
2026-04-29 14:52 52.30088 4.76230 0 ft 17 kts 57°
2026-04-29 14:52 52.30154 4.76411 0 ft 19 kts 59°
2026-04-29 14:52 52.30230 4.76609 0 ft 20 kts 58°
2026-04-29 14:52 52.30317 4.76727 0 ft 14 kts 340°
2026-04-29 14:53 52.30366 4.76586 0 ft 13 kts 308°
2026-04-29 14:53 52.30416 4.76566 0 ft 6 kts 58°
2026-04-29 14:53 52.30428 4.76598 0 ft 0 kts 59°
2026-04-29 14:53 52.30430 4.76603 0 ft 0 kts 59°